| time (UTC) | temp F | wind direction | speed MPH | gust MPH | rain 1hr in | rain 24hr in | rain mn in | humidity % | barometer mb |
| 20260904232544 | 88 | 9 | 0.0 | 0.0 | 0.00 | 0.00 | 0.00 | 67 | 1012.0 |
| 20260904232044 | 89 | 9 | 0.0 | 0.0 | 0.00 | 0.00 | 0.00 | 65 | 1012.0 |
| 20260904231543 | 89 | 9 | 0.0 | 0.0 | 0.00 | 0.00 | 0.00 | 66 | 1012.0 |
| 20260904231042 | 89 | 9 | 0.0 | 0.0 | 0.00 | 0.00 | 0.00 | 64 | 1012.0 |
| 20260904230542 | 90 | 9 | 0.0 | 0.0 | 0.00 | 0.00 | 0.00 | 64 | 1012.0 |
| 20260904230043 | 90 | 9 | 0.0 | 0.0 | 0.00 | 0.00 | 0.00 | 62 | 1011.9 |
| 20260904225544 | 90 | 9 | 0.0 | 0.0 | 0.00 | 0.00 | 0.00 | 63 | 1011.8 |
| 20260904225042 | 91 | 9 | 0.0 | 0.0 | 0.00 | 0.00 | 0.00 | 61 | 1011.9 |
| 20260904224543 | 92 | 9 | 0.0 | 0.0 | 0.00 | 0.00 | 0.00 | 59 | 1011.9 |
| 20260904224042 | 92 | 9 | 0.0 | 0.0 | 0.00 | 0.00 | 0.00 | 59 | 1011.9 |
| 20260904223540 | 93 | 9 | 0.0 | 0.0 | 0.00 | 0.00 | 0.00 | 58 | 1011.9 |
| 20260904223040 | 93 | 9 | 0.0 | 0.0 | 0.00 | 0.00 | 0.00 | 55 | 1011.8 |
| 20260904222538 | 93 | 9 | 0.0 | 0.0 | 0.00 | 0.00 | 0.00 | 55 | 1011.8 |
| 20260904222044 | 94 | 9 | 0.0 | 0.0 | 0.00 | 0.00 | 0.00 | 55 | 1011.8 |
| 20260904221539 | 94 | 9 | 0.0 | 0.0 | 0.00 | 0.00 | 0.00 | 54 | 1011.7 |
| 20260904221038 | 94 | 9 | 0.0 | 0.0 | 0.00 | 0.00 | 0.00 | 58 | 1011.7 |
| 20260904220538 | 93 | 9 | 0.0 | 0.0 | 0.00 | 0.00 | 0.00 | 57 | 1011.7 |
| 20260904220055 | 93 | 9 | 0.0 | 0.0 | 0.00 | 0.00 | 0.00 | 57 | 1011.5 |
| 20260904215536 | 93 | 9 | 0.0 | 0.0 | 0.00 | 0.00 | 0.00 | 57 | 1011.6 |
| 20260904215037 | 94 | 9 | 0.0 | 0.0 | 0.00 | 0.00 | 0.00 | 55 | 1011.8 |
| 20260904214539 | 94 | 13 | 0.0 | 0.0 | 0.00 | 0.00 | 0.00 | 53 | 1011.7 |
| 20260904214036 | 94 | 57 | 0.0 | 0.0 | 0.00 | 0.00 | 0.00 | 55 | 1011.8 |
| 20260904213538 | 94 | 71 | 0.0 | 0.0 | 0.00 | 0.00 | 0.00 | 52 | 1011.8 |
| 20260904213035 | 94 | 124 | 0.0 | 0.0 | 0.00 | 0.00 | 0.00 | 55 | 1011.9 |
| 20260904212534 | 94 | 36 | 0.0 | 0.0 | 0.00 | 0.00 | 0.00 | 55 | 1012.0 |
| 20260904212034 | 94 | 36 | 0.0 | 0.0 | 0.00 | 0.00 | 0.00 | 54 | 1012.0 |
| 20260904211537 | 95 | 40 | 0.0 | 0.0 | 0.00 | 0.00 | 0.00 | 53 | 1012.0 |
| 20260904211037 | 95 | 44 | 0.0 | 0.0 | 0.00 | 0.00 | 0.00 | 51 | 1012.0 |
| 20260904210533 | 95 | 24 | 0.0 | 0.0 | 0.00 | 0.00 | 0.00 | 53 | 1012.1 |
| 20260904210042 | 95 | 263 | 0.0 | 0.0 | 0.00 | 0.00 | 0.00 | 50 | 1012.0 |
| 20260904205533 | 95 | 34 | 0.0 | 0.0 | 0.00 | 0.00 | 0.00 | 50 | 1012.1 |
| 20260904205034 | 95 | 34 | 0.0 | 0.0 | 0.00 | 0.00 | 0.00 | 50 | 1012.2 |
| 20260904204532 | 96 | 11 | 0.0 | 0.0 | 0.00 | 0.00 | 0.00 | 51 | 1012.2 |
| 20260904204031 | 96 | 62 | 0.0 | 0.0 | 0.00 | 0.00 | 0.00 | 50 | 1012.3 |
| 20260904203531 | 95 | 9 | 0.0 | 0.0 | 0.00 | 0.00 | 0.00 | 51 | 1012.3 |
| 20260904203043 | 95 | 80 | 0.0 | 0.0 | 0.00 | 0.00 | 0.00 | 49 | 1012.4 |
| 20260904202529 | 96 | 102 | 0.0 | 0.0 | 0.00 | 0.00 | 0.00 | 50 | 1012.4 |
| 20260904202029 | 96 | 108 | 0.0 | 0.0 | 0.00 | 0.00 | 0.00 | 49 | 1012.4 |
| 20260904201529 | 95 | 127 | 0.0 | 0.0 | 0.00 | 0.00 | 0.00 | 51 | 1012.5 |
| 20260904201028 | 96 | 111 | 0.0 | 0.0 | 0.00 | 0.00 | 0.00 | 51 | 1012.6 |
| 20260904200528 | 95 | 94 | 0.0 | 0.0 | 0.00 | 0.00 | 0.00 | 52 | 1012.6 |
| 20260904200028 | 95 | 329 | 0.0 | 0.0 | 0.00 | 0.00 | 0.00 | 52 | 1012.6 |
| 20260904195529 | 95 | 138 | 0.0 | 0.0 | 0.00 | 0.00 | 0.00 | 53 | 1012.7 |
| 20260904195026 | 95 | 227 | 0.0 | 0.0 | 0.00 | 0.00 | 0.00 | 53 | 1012.8 |
| 20260904194525 | 95 | 93 | 0.0 | 0.0 | 0.00 | 0.00 | 0.00 | 53 | 1013.0 |
| 20260904194027 | 96 | 332 | 0.0 | 0.0 | 0.00 | 0.00 | 0.00 | 54 | 1013.0 |
| 20260904193531 | 95 | 54 | 0.0 | 0.0 | 0.00 | 0.00 | 0.00 | 53 | 1013.0 |
| 20260904193024 | 95 | 37 | 0.0 | 0.0 | 0.00 | 0.00 | 0.00 | 52 | 1013.2 |
| 20260904192522 | 95 | 69 | 0.0 | 0.0 | 0.00 | 0.00 | 0.00 | 50 | 1013.3 |
| 20260904192021 | 95 | 72 | 0.0 | 0.0 | 0.00 | 0.00 | 0.00 | 50 | 1013.4 |
| 20260904191520 | 95 | 98 | 0.0 | 0.0 | 0.00 | 0.00 | 0.00 | 52 | 1013.5 |
| 20260904191019 | 95 | 98 | 0.0 | 0.0 | 0.00 | 0.00 | 0.00 | 53 | 1013.6 |
| 20260904190518 | 95 | 294 | 0.0 | 0.0 | 0.00 | 0.00 | 0.00 | 51 | 1013.7 |
| 20260904190017 | 95 | 98 | 0.0 | 0.0 | 0.00 | 0.00 | 0.00 | 54 | 1013.7 |
| 20260904185515 | 94 | 65 | 0.0 | 0.0 | 0.00 | 0.00 | 0.00 | 57 | 1013.8 |
| 20260904185015 | 94 | 84 | 0.0 | 0.0 | 0.00 | 0.00 | 0.00 | 57 | 1014.0 |
| 20260904184523 | 94 | 74 | 0.0 | 0.0 | 0.00 | 0.00 | 0.00 | 58 | 1014.0 |
| 20260904184015 | 94 | 40 | 0.0 | 0.0 | 0.00 | 0.00 | 0.00 | 57 | 1014.1 |
| 20260904183514 | 93 | 97 | 0.0 | 0.0 | 0.00 | 0.00 | 0.00 | 59 | 1014.2 |
| 20260904183014 | 92 | 229 | 0.0 | 0.0 | 0.00 | 0.00 | 0.00 | 59 | 1014.2 |
| 20260904182513 | 93 | 237 | 0.0 | 0.0 | 0.00 | 0.00 | 0.00 | 57 | 1014.3 |
| 20260904182017 | 93 | 254 | 0.0 | 0.0 | 0.00 | 0.00 | 0.00 | 57 | 1014.3 |
| 20260904181513 | 93 | 247 | 0.0 | 0.0 | 0.00 | 0.00 | 0.00 | 56 | 1014.4 |
| 20260904181012 | 93 | 296 | 0.0 | 0.0 | 0.00 | 0.00 | 0.00 | 58 | 1014.5 |
| 20260904180513 | 93 | 322 | 0.0 | 0.0 | 0.00 | 0.00 | 0.00 | 56 | 1014.5 |
| 20260904180012 | 93 | 169 | 0.0 | 0.0 | 0.00 | 0.00 | 0.00 | 55 | 1014.5 |
| 20260904175512 | 93 | 190 | 0.0 | 0.0 | 0.00 | 0.00 | 0.00 | 56 | 1014.6 |
| 20260904175012 | 93 | 323 | 0.0 | 0.0 | 0.00 | 0.00 | 0.00 | 56 | 1014.7 |
| 20260904174511 | 93 | 294 | 0.0 | 0.0 | 0.00 | 0.00 | 0.00 | 59 | 1014.8 |
| 20260904174012 | 93 | 194 | 0.0 | 0.0 | 0.00 | 0.00 | 0.00 | 57 | 1014.9 |
| 20260904173510 | 93 | 355 | 0.0 | 0.0 | 0.00 | 0.00 | 0.00 | 56 | 1014.9 |
| 20260904173027 | 93 | 355 | 0.0 | 0.0 | 0.00 | 0.00 | 0.00 | 57 | 1014.9 |
| 20260904172508 | 92 | 279 | 0.0 | 0.0 | 0.00 | 0.00 | 0.00 | 58 | 1015.0 |
| 20260904172008 | 92 | 239 | 0.0 | 0.0 | 0.00 | 0.00 | 0.00 | 59 | 1015.1 |
| 20260904171507 | 91 | 242 | 0.0 | 0.0 | 0.00 | 0.00 | 0.00 | 59 | 1015.2 |
| 20260904171006 | 92 | 279 | 0.0 | 0.0 | 0.00 | 0.00 | 0.00 | 60 | 1015.3 |
| 20260904170509 | 91 | 248 | 0.0 | 0.0 | 0.00 | 0.00 | 0.00 | 60 | 1015.3 |
| 20260904170012 | 91 | 232 | 0.0 | 0.0 | 0.00 | 0.00 | 0.00 | 61 | 1015.4 |
| 20260904165504 | 91 | 281 | 0.0 | 0.0 | 0.00 | 0.00 | 0.00 | 62 | 1015.4 |
| 20260904165004 | 91 | 245 | 0.0 | 0.0 | 0.00 | 0.00 | 0.00 | 62 | 1015.5 |
| 20260904164502 | 91 | 264 | 0.0 | 0.0 | 0.00 | 0.00 | 0.00 | 63 | 1015.5 |
| 20260904164002 | 90 | 345 | 0.0 | 0.0 | 0.00 | 0.00 | 0.00 | 63 | 1015.6 |
| 20260904163502 | 90 | 355 | 0.0 | 0.0 | 0.00 | 0.00 | 0.00 | 65 | 1015.6 |
| 20260904163000 | 90 | 293 | 0.0 | 0.0 | 0.00 | 0.00 | 0.00 | 68 | 1015.6 |
| 20260904162600 | 90 | 11 | 0.0 | 0.0 | 0.00 | 0.00 | 0.00 | 65 | 1015.7 |
| 20260904162103 | 89 | 239 | 0.0 | 0.0 | 0.00 | 0.00 | 0.00 | 65 | 1015.7 |
| 20260904161627 | 89 | 247 | 0.0 | 0.0 | 0.00 | 0.00 | 0.00 | 67 | 1015.8 |
| 20260904161100 | 89 | 344 | 0.0 | 0.0 | 0.00 | 0.00 | 0.00 | 67 | 1015.8 |
| 20260904160557 | 89 | 344 | 0.0 | 0.0 | 0.00 | 0.00 | 0.00 | 67 | 1015.8 |
| 20260904160057 | 88 | 272 | 0.0 | 0.0 | 0.00 | 0.00 | 0.00 | 68 | 1015.8 |
| 20260904155555 | 88 | 278 | 0.0 | 0.0 | 0.00 | 0.00 | 0.00 | 69 | 1015.9 |
| 20260904155054 | 88 | 349 | 0.0 | 0.0 | 0.00 | 0.00 | 0.00 | 69 | 1016.0 |
| 20260904154553 | 88 | 349 | 0.0 | 0.0 | 0.00 | 0.00 | 0.00 | 68 | 1016.0 |
| 20260904154053 | 88 | 241 | 0.0 | 0.0 | 0.00 | 0.00 | 0.00 | 69 | 1016.0 |
| 20260904153552 | 87 | 241 | 0.0 | 0.0 | 0.00 | 0.00 | 0.00 | 69 | 1016.0 |
| 20260904153055 | 87 | 210 | 0.0 | 0.0 | 0.00 | 0.00 | 0.00 | 70 | 1016.0 |
| 20260904152551 | 87 | 219 | 0.0 | 0.0 | 0.00 | 0.00 | 0.00 | 70 | 1016.0 |
| 20260904152051 | 87 | 355 | 0.0 | 0.0 | 0.00 | 0.00 | 0.00 | 70 | 1016.1 |
| 20260904151551 | 87 | 63 | 0.0 | 0.0 | 0.00 | 0.00 | 0.00 | 70 | 1016.1 |
| 20260904151049 | 87 | 84 | 0.0 | 0.0 | 0.00 | 0.00 | 0.00 | 71 | 1016.1 |
| 20260904150548 | 86 | 91 | 0.0 | 0.0 | 0.00 | 0.00 | 0.00 | 72 | 1016.1 |
| 20260904150056 | 86 | 217 | 0.0 | 0.0 | 0.00 | 0.00 | 0.00 | 72 | 1015.9 |
| 20260904145547 | 86 | 190 | 0.0 | 0.0 | 0.00 | 0.00 | 0.00 | 73 | 1016.0 |
| 20260904145045 | 85 | 234 | 0.0 | 0.0 | 0.00 | 0.00 | 0.00 | 74 | 1015.9 |
| 20260904144558 | 85 | 234 | 0.0 | 0.0 | 0.00 | 0.00 | 0.00 | 74 | 1015.8 |
| 20260904144044 | 84 | 228 | 0.0 | 0.0 | 0.00 | 0.00 | 0.00 | 73 | 1015.9 |
| 20260904143543 | 84 | 228 | 0.0 | 0.0 | 0.00 | 0.00 | 0.00 | 75 | 1015.9 |
| 20260904143050 | 84 | 335 | 0.0 | 0.0 | 0.00 | 0.00 | 0.00 | 76 | 1016.0 |
| 20260904142541 | 84 | 225 | 0.0 | 0.0 | 0.00 | 0.00 | 0.00 | 77 | 1016.0 |
| 20260904142042 | 84 | 225 | 0.0 | 0.0 | 0.00 | 0.00 | 0.00 | 77 | 1015.9 |
| 20260904141540 | 83 | 224 | 0.0 | 0.0 | 0.00 | 0.00 | 0.00 | 77 | 1015.9 |
| 20260904141038 | 83 | 221 | 0.0 | 0.0 | 0.00 | 0.00 | 0.00 | 79 | 1016.0 |
| 20260904140538 | 83 | 222 | 0.0 | 0.0 | 0.00 | 0.00 | 0.00 | 79 | 1015.9 |
| 20260904140050 | 82 | 62 | 0.0 | 0.0 | 0.00 | 0.00 | 0.00 | 79 | 1015.9 |
| 20260904135539 | 82 | 62 | 0.0 | 0.0 | 0.00 | 0.00 | 0.00 | 82 | 1015.8 |
| 20260904135036 | 82 | 62 | 0.0 | 0.0 | 0.00 | 0.00 | 0.00 | 82 | 1015.7 |
| 20260904134537 | 82 | 74 | 0.0 | 0.0 | 0.00 | 0.00 | 0.00 | 82 | 1015.7 |
| 20260904134033 | 81 | 148 | 0.0 | 0.0 | 0.00 | 0.00 | 0.00 | 85 | 1015.8 |
| 20260904133532 | 79 | 95 | 0.0 | 0.0 | 0.00 | 0.00 | 0.00 | 90 | 1015.8 |
| 20260904133033 | 77 | 95 | 0.0 | 0.0 | 0.00 | 0.00 | 0.00 | 96 | 1015.7 |
| 20260904132531 | 76 | 95 | 0.0 | 0.0 | 0.00 | 0.00 | 0.00 | 97 | 1015.9 |
| 20260904132033 | 76 | 95 | 0.0 | 0.0 | 0.00 | 0.00 | 0.00 | 97 | 1015.8 |
| 20260904131530 | 75 | 95 | 0.0 | 0.0 | 0.00 | 0.00 | 0.00 | 97 | 1015.8 |
| 20260904131030 | 75 | 95 | 0.0 | 0.0 | 0.00 | 0.00 | 0.00 | 97 | 1015.8 |
| 20260904130529 | 75 | 95 | 0.0 | 0.0 | 0.00 | 0.00 | 0.00 | 96 | 1015.7 |
| 20260904130030 | 75 | 95 | 0.0 | 0.0 | 0.00 | 0.00 | 0.00 | 97 | 1015.7 |
| 20260904125529 | 74 | 95 | 0.0 | 0.0 | 0.00 | 0.00 | 0.00 | 96 | 1015.7 |
| 20260904125029 | 74 | 95 | 0.0 | 0.0 | 0.00 | 0.00 | 0.00 | 96 | 1015.7 |
| 20260904124529 | 74 | 95 | 0.0 | 0.0 | 0.00 | 0.00 | 0.00 | 96 | 1015.8 |
| 20260904124028 | 74 | 95 | 0.0 | 0.0 | 0.00 | 0.00 | 0.00 | 96 | 1015.8 |
| 20260904123531 | 73 | 95 | 0.0 | 0.0 | 0.00 | 0.00 | 0.00 | 96 | 1015.8 |
| 20260904123028 | 73 | 95 | 0.0 | 0.0 | 0.00 | 0.00 | 0.00 | 96 | 1015.8 |
| 20260904122530 | 73 | 95 | 0.0 | 0.0 | 0.00 | 0.00 | 0.00 | 96 | 1015.8 |
| 20260904122026 | 73 | 95 | 0.0 | 0.0 | 0.00 | 0.00 | 0.00 | 96 | 1015.7 |
| 20260904121526 | 73 | 95 | 0.0 | 0.0 | 0.00 | 0.00 | 0.00 | 95 | 1015.6 |
| 20260904121026 | 73 | 95 | 0.0 | 0.0 | 0.00 | 0.00 | 0.00 | 95 | 1015.5 |
| 20260904120525 | 73 | 95 | 0.0 | 0.0 | 0.00 | 0.00 | 0.00 | 95 | 1015.6 |
| 20260904120026 | 73 | 95 | 0.0 | 0.0 | 0.00 | 0.00 | 0.00 | 95 | 1015.7 |
| 20260904115525 | 73 | 95 | 0.0 | 0.0 | 0.00 | 0.00 | 0.00 | 95 | 1015.6 |
| 20260904115027 | 73 | 95 | 0.0 | 0.0 | 0.00 | 0.00 | 0.00 | 95 | 1015.6 |
| 20260904114530 | 73 | 95 | 0.0 | 0.0 | 0.00 | 0.00 | 0.00 | 95 | 1015.6 |
| 20260904114024 | 73 | 95 | 0.0 | 0.0 | 0.00 | 0.00 | 0.00 | 95 | 1015.5 |
| 20260904113527 | 73 | 95 | 0.0 | 0.0 | 0.00 | 0.00 | 0.00 | 95 | 1015.5 |
| 20260904113030 | 73 | 95 | 0.0 | 0.0 | 0.00 | 0.00 | 0.00 | 95 | 1015.4 |
| 20260904112521 | 73 | 95 | 0.0 | 0.0 | 0.00 | 0.00 | 0.00 | 95 | 1015.4 |
| 20260904112021 | 73 | 95 | 0.0 | 0.0 | 0.00 | 0.00 | 0.00 | 95 | 1015.3 |
| 20260904111523 | 73 | 95 | 0.0 | 0.0 | 0.00 | 0.00 | 0.00 | 95 | 1015.3 |
| 20260904111021 | 73 | 95 | 0.0 | 0.0 | 0.00 | 0.00 | 0.00 | 95 | 1015.3 |
| 20260904110521 | 73 | 95 | 0.0 | 0.0 | 0.00 | 0.00 | 0.00 | 95 | 1015.3 |
| 20260904110020 | 73 | 95 | 0.0 | 0.0 | 0.00 | 0.00 | 0.00 | 95 | 1015.3 |
| 20260904105525 | 73 | 95 | 0.0 | 0.0 | 0.00 | 0.00 | 0.00 | 95 | 1015.1 |
| 20260904105020 | 73 | 95 | 0.0 | 0.0 | 0.00 | 0.00 | 0.00 | 94 | 1015.1 |
| 20260904104519 | 73 | 95 | 0.0 | 0.0 | 0.00 | 0.00 | 0.00 | 94 | 1015.0 |
| 20260904104017 | 73 | 95 | 0.0 | 0.0 | 0.00 | 0.00 | 0.00 | 94 | 1015.0 |
| 20260904103517 | 73 | 95 | 0.0 | 0.0 | 0.00 | 0.00 | 0.00 | 94 | 1014.9 |
| 20260904103017 | 73 | 95 | 0.0 | 0.0 | 0.00 | 0.00 | 0.00 | 94 | 1014.8 |
| 20260904102517 | 73 | 95 | 0.0 | 0.0 | 0.00 | 0.00 | 0.00 | 94 | 1014.8 |
| 20260904102017 | 73 | 95 | 0.0 | 0.0 | 0.00 | 0.00 | 0.00 | 94 | 1014.8 |
| 20260904101516 | 73 | 95 | 0.0 | 0.0 | 0.00 | 0.00 | 0.00 | 94 | 1014.7 |
| 20260904101015 | 73 | 95 | 0.0 | 0.0 | 0.00 | 0.00 | 0.00 | 94 | 1014.7 |
| 20260904100515 | 73 | 95 | 0.0 | 0.0 | 0.00 | 0.00 | 0.00 | 94 | 1014.7 |
| 20260904100015 | 73 | 95 | 0.0 | 0.0 | 0.00 | 0.00 | 0.00 | 94 | 1014.7 |
| 20260904095515 | 73 | 95 | 0.0 | 0.0 | 0.00 | 0.00 | 0.00 | 94 | 1014.6 |
| 20260904095014 | 73 | 95 | 0.0 | 0.0 | 0.00 | 0.00 | 0.00 | 94 | 1014.7 |
| 20260904094525 | 74 | 95 | 0.0 | 0.0 | 0.00 | 0.00 | 0.00 | 94 | 1014.7 |
| 20260904094013 | 74 | 95 | 0.0 | 0.0 | 0.00 | 0.00 | 0.00 | 94 | 1014.6 |
| 20260904093512 | 74 | 95 | 0.0 | 0.0 | 0.00 | 0.00 | 0.00 | 94 | 1014.6 |
| 20260904093012 | 74 | 95 | 0.0 | 0.0 | 0.00 | 0.00 | 0.00 | 94 | 1014.5 |
| 20260904092511 | 74 | 95 | 0.0 | 0.0 | 0.00 | 0.00 | 0.00 | 94 | 1014.6 |
| 20260904092010 | 74 | 95 | 0.0 | 0.0 | 0.00 | 0.00 | 0.00 | 94 | 1014.5 |
| 20260904091511 | 74 | 95 | 0.0 | 0.0 | 0.00 | 0.00 | 0.00 | 94 | 1014.5 |
| 20260904091011 | 74 | 95 | 0.0 | 0.0 | 0.00 | 0.00 | 0.00 | 94 | 1014.5 |
| 20260904090509 | 74 | 95 | 0.0 | 0.0 | 0.00 | 0.00 | 0.00 | 94 | 1014.5 |
| 20260904090009 | 74 | 95 | 0.0 | 0.0 | 0.00 | 0.00 | 0.00 | 94 | 1014.5 |
| 20260904085513 | 74 | 95 | 0.0 | 0.0 | 0.00 | 0.00 | 0.00 | 94 | 1014.4 |
| 20260904085009 | 74 | 95 | 0.0 | 0.0 | 0.00 | 0.00 | 0.00 | 94 | 1014.3 |
| 20260904084509 | 74 | 95 | 0.0 | 0.0 | 0.00 | 0.00 | 0.00 | 94 | 1014.4 |
| 20260904084008 | 74 | 95 | 0.0 | 0.0 | 0.00 | 0.00 | 0.00 | 94 | 1014.3 |
| 20260904083508 | 74 | 95 | 0.0 | 0.0 | 0.00 | 0.00 | 0.00 | 94 | 1014.3 |
| 20260904083008 | 74 | 95 | 0.0 | 0.0 | 0.00 | 0.00 | 0.00 | 94 | 1014.3 |
| 20260904082510 | 74 | 95 | 0.0 | 0.0 | 0.00 | 0.00 | 0.00 | 94 | 1014.3 |
| 20260904082008 | 74 | 95 | 0.0 | 0.0 | 0.00 | 0.00 | 0.00 | 94 | 1014.3 |
| 20260904081507 | 74 | 95 | 0.0 | 0.0 | 0.00 | 0.00 | 0.00 | 94 | 1014.3 |
| 20260904081007 | 74 | 95 | 0.0 | 0.0 | 0.00 | 0.00 | 0.00 | 94 | 1014.3 |
| 20260904080506 | 74 | 95 | 0.0 | 0.0 | 0.00 | 0.00 | 0.00 | 94 | 1014.3 |
| 20260904080006 | 75 | 95 | 0.0 | 0.0 | 0.00 | 0.00 | 0.00 | 94 | 1014.2 |
| 20260904075510 | 75 | 95 | 0.0 | 0.0 | 0.00 | 0.00 | 0.00 | 94 | 1014.2 |
| 20260904075006 | 75 | 95 | 0.0 | 0.0 | 0.00 | 0.00 | 0.00 | 94 | 1014.2 |
| 20260904074506 | 75 | 95 | 0.0 | 0.0 | 0.00 | 0.00 | 0.00 | 94 | 1014.2 |
| 20260904074005 | 75 | 95 | 0.0 | 0.0 | 0.00 | 0.00 | 0.00 | 94 | 1014.2 |
| 20260904073509 | 75 | 95 | 0.0 | 0.0 | 0.00 | 0.00 | 0.00 | 94 | 1014.1 |
| 20260904073005 | 75 | 95 | 0.0 | 0.0 | 0.00 | 0.00 | 0.00 | 94 | 1014.1 |
| 20260904072504 | 75 | 95 | 0.0 | 0.0 | 0.00 | 0.00 | 0.00 | 94 | 1014.0 |
| 20260904072004 | 75 | 95 | 0.0 | 0.0 | 0.00 | 0.00 | 0.00 | 94 | 1014.0 |
| 20260904071504 | 75 | 95 | 0.0 | 0.0 | 0.00 | 0.00 | 0.00 | 93 | 1014.0 |
| 20260904071003 | 75 | 95 | 0.0 | 0.0 | 0.00 | 0.00 | 0.00 | 93 | 1014.0 |
| 20260904070503 | 75 | 95 | 0.0 | 0.0 | 0.00 | 0.00 | 0.00 | 93 | 1014.1 |
| 20260904070004 | 75 | 95 | 0.0 | 0.0 | 0.00 | 0.00 | 0.00 | 93 | 1014.1 |
| 20260904065503 | 75 | 95 | 0.0 | 0.0 | 0.00 | 0.00 | 0.00 | 93 | 1014.2 |
| 20260904065001 | 75 | 95 | 0.0 | 0.0 | 0.00 | 0.00 | 0.00 | 93 | 1014.2 |
| 20260904064501 | 75 | 95 | 0.0 | 0.0 | 0.00 | 0.00 | 0.00 | 93 | 1014.2 |
| 20260904064002 | 75 | 95 | 0.0 | 0.0 | 0.00 | 0.00 | 0.00 | 93 | 1014.2 |
| 20260904063502 | 75 | 95 | 0.0 | 0.0 | 0.00 | 0.00 | 0.00 | 93 | 1014.2 |
| 20260904063001 | 75 | 95 | 0.0 | 0.0 | 0.00 | 0.00 | 0.00 | 94 | 1014.3 |
| 20260904062502 | 75 | 95 | 0.0 | 0.0 | 0.00 | 0.00 | 0.00 | 94 | 1014.3 |
| 20260904062001 | 75 | 95 | 0.0 | 0.0 | 0.00 | 0.00 | 0.00 | 94 | 1014.2 |
| 20260904061601 | 75 | 95 | 0.0 | 0.0 | 0.00 | 0.00 | 0.00 | 94 | 1014.2 |
| 20260904061100 | 75 | 95 | 0.0 | 0.0 | 0.00 | 0.00 | 0.00 | 93 | 1014.2 |
| 20260904060600 | 75 | 95 | 0.0 | 0.0 | 0.00 | 0.00 | 0.00 | 94 | 1014.2 |
| 20260904060113 | 75 | 95 | 0.0 | 0.0 | 0.00 | 0.00 | 0.00 | 94 | 1014.3 |
| 20260904055557 | 75 | 95 | 0.0 | 0.0 | 0.00 | 0.00 | 0.00 | 93 | 1014.3 |
| 20260904055059 | 75 | 95 | 0.0 | 0.0 | 0.00 | 0.00 | 0.00 | 93 | 1014.3 |
| 20260904054557 | 75 | 95 | 0.0 | 0.0 | 0.00 | 0.00 | 0.00 | 93 | 1014.4 |
| 20260904054056 | 76 | 95 | 0.0 | 0.0 | 0.00 | 0.00 | 0.00 | 93 | 1014.3 |
| 20260904053555 | 76 | 95 | 0.0 | 0.0 | 0.00 | 0.00 | 0.00 | 93 | 1014.3 |
| 20260904053055 | 76 | 95 | 0.0 | 0.0 | 0.00 | 0.00 | 0.00 | 93 | 1014.4 |
| 20260904052554 | 76 | 95 | 0.0 | 0.0 | 0.00 | 0.00 | 0.00 | 93 | 1014.5 |
| 20260904052054 | 76 | 95 | 0.0 | 0.0 | 0.00 | 0.00 | 0.00 | 94 | 1014.5 |
| 20260904051554 | 76 | 95 | 0.0 | 0.0 | 0.00 | 0.00 | 0.00 | 93 | 1014.5 |
| 20260904051053 | 76 | 95 | 0.0 | 0.0 | 0.00 | 0.00 | 0.00 | 93 | 1014.5 |
| 20260904050552 | 76 | 95 | 0.0 | 0.0 | 0.00 | 0.00 | 0.00 | 93 | 1014.6 |
| 20260904050056 | 76 | 95 | 0.0 | 0.0 | 0.00 | 0.00 | 0.00 | 93 | 1014.6 |
| 20260904045552 | 76 | 95 | 0.0 | 0.0 | 0.00 | 0.00 | 0.00 | 93 | 1014.6 |
| 20260904045051 | 76 | 95 | 0.0 | 0.0 | 0.00 | 0.00 | 0.00 | 93 | 1014.6 |
| 20260904044551 | 76 | 95 | 0.0 | 0.0 | 0.00 | 0.00 | 0.00 | 93 | 1014.6 |
| 20260904044050 | 76 | 95 | 0.0 | 0.0 | 0.00 | 0.00 | 0.00 | 93 | 1014.7 |
| 20260904043553 | 76 | 95 | 0.0 | 0.0 | 0.00 | 0.00 | 0.00 | 92 | 1014.7 |
| 20260904043049 | 77 | 95 | 0.0 | 0.0 | 0.00 | 0.00 | 0.00 | 92 | 1014.7 |
| 20260904042549 | 77 | 95 | 0.0 | 0.0 | 0.00 | 0.00 | 0.00 | 92 | 1014.8 |
| 20260904042049 | 77 | 95 | 0.0 | 0.0 | 0.00 | 0.00 | 0.00 | 92 | 1014.8 |
| 20260904041551 | 77 | 95 | 0.0 | 0.0 | 0.00 | 0.00 | 0.00 | 92 | 1014.8 |
| 20260904041050 | 76 | 95 | 0.0 | 0.0 | 0.00 | 0.00 | 0.00 | 92 | 1014.8 |
| 20260904040548 | 76 | 95 | 0.0 | 0.0 | 0.00 | 0.00 | 0.00 | 92 | 1014.8 |
| 20260904040047 | 76 | 95 | 0.0 | 0.0 | 0.00 | 0.00 | 0.00 | 92 | 1014.9 |
| 20260904035544 | 76 | 95 | 0.0 | 0.0 | 0.00 | 0.00 | 0.00 | 91 | 1014.9 |
| 20260904035046 | 77 | 95 | 0.0 | 0.0 | 0.00 | 0.00 | 0.00 | 91 | 1014.9 |
| 20260904034547 | 77 | 95 | 0.0 | 0.0 | 0.00 | 0.00 | 0.00 | 91 | 1014.9 |
| 20260904034044 | 77 | 95 | 0.0 | 0.0 | 0.00 | 0.00 | 0.00 | 91 | 1014.9 |
| 20260904033546 | 77 | 95 | 0.0 | 0.0 | 0.00 | 0.00 | 0.00 | 91 | 1015.0 |
| 20260904033044 | 77 | 95 | 0.0 | 0.0 | 0.00 | 0.00 | 0.00 | 90 | 1015.0 |
| 20260904032543 | 77 | 95 | 0.0 | 0.0 | 0.00 | 0.00 | 0.00 | 90 | 1015.0 |
| 20260904032043 | 78 | 95 | 0.0 | 0.0 | 0.00 | 0.00 | 0.00 | 90 | 1015.0 |
| 20260904031543 | 78 | 95 | 0.0 | 0.0 | 0.00 | 0.00 | 0.00 | 89 | 1015.0 |
| 20260904031043 | 78 | 95 | 0.0 | 0.0 | 0.00 | 0.00 | 0.00 | 89 | 1015.0 |
| 20260904030543 | 78 | 95 | 0.0 | 0.0 | 0.00 | 0.00 | 0.00 | 89 | 1015.1 |
| 20260904030043 | 78 | 95 | 0.0 | 0.0 | 0.00 | 0.00 | 0.00 | 89 | 1015.1 |
| 20260904025546 | 78 | 95 | 0.0 | 0.0 | 0.00 | 0.00 | 0.00 | 89 | 1015.1 |
| 20260904025043 | 78 | 95 | 0.0 | 0.0 | 0.00 | 0.00 | 0.00 | 89 | 1015.1 |
| 20260904024543 | 79 | 95 | 0.0 | 0.0 | 0.00 | 0.00 | 0.00 | 89 | 1015.1 |
| 20260904024043 | 79 | 95 | 0.0 | 0.0 | 0.00 | 0.00 | 0.00 | 88 | 1015.1 |
| 20260904023542 | 79 | 95 | 0.0 | 0.0 | 0.00 | 0.00 | 0.00 | 88 | 1015.0 |
| 20260904023044 | 79 | 95 | 0.0 | 0.0 | 0.00 | 0.00 | 0.00 | 88 | 1015.0 |
| 20260904022545 | 79 | 95 | 0.0 | 0.0 | 0.00 | 0.00 | 0.00 | 88 | 1014.9 |
| 20260904022042 | 79 | 95 | 0.0 | 0.0 | 0.00 | 0.00 | 0.00 | 87 | 1014.8 |
| 20260904021551 | 79 | 95 | 0.0 | 0.0 | 0.00 | 0.00 | 0.00 | 86 | 1014.7 |
| 20260904021041 | 80 | 95 | 0.0 | 0.0 | 0.00 | 0.00 | 0.00 | 86 | 1014.6 |
| 20260904020541 | 80 | 95 | 0.0 | 0.0 | 0.00 | 0.00 | 0.00 | 86 | 1014.6 |
| 20260904020042 | 80 | 95 | 0.0 | 0.0 | 0.00 | 0.00 | 0.00 | 86 | 1014.6 |
| 20260904015542 | 80 | 95 | 0.0 | 0.0 | 0.00 | 0.00 | 0.00 | 86 | 1014.5 |
| 20260904015041 | 80 | 95 | 0.0 | 0.0 | 0.00 | 0.00 | 0.00 | 86 | 1014.5 |
| 20260904014545 | 80 | 95 | 0.0 | 0.0 | 0.00 | 0.00 | 0.00 | 86 | 1014.5 |
| 20260904014041 | 80 | 95 | 0.0 | 0.0 | 0.00 | 0.00 | 0.00 | 85 | 1014.4 |
| 20260904013540 | 80 | 95 | 0.0 | 0.0 | 0.00 | 0.00 | 0.00 | 85 | 1014.2 |
| 20260904013104 | 80 | 95 | 0.0 | 0.0 | 0.00 | 0.00 | 0.00 | 85 | 1014.2 |
| 20260904012540 | 81 | 95 | 0.0 | 0.0 | 0.00 | 0.00 | 0.00 | 85 | 1014.0 |
| 20260904012040 | 81 | 95 | 0.0 | 0.0 | 0.00 | 0.00 | 0.00 | 84 | 1014.0 |
| 20260904011539 | 81 | 95 | 0.0 | 0.0 | 0.00 | 0.00 | 0.00 | 84 | 1014.0 |
| 20260904011042 | 82 | 95 | 0.0 | 0.0 | 0.00 | 0.00 | 0.00 | 83 | 1014.0 |
| 20260904010539 | 82 | 95 | 0.0 | 0.0 | 0.00 | 0.00 | 0.00 | 84 | 1014.0 |
| 20260904010039 | 82 | 95 | 0.0 | 0.0 | 0.00 | 0.00 | 0.00 | 84 | 1013.9 |
| 20260904005538 | 82 | 95 | 0.0 | 0.0 | 0.00 | 0.00 | 0.00 | 83 | 1013.8 |
| 20260904005041 | 82 | 95 | 0.0 | 0.0 | 0.00 | 0.00 | 0.00 | 83 | 1013.7 |
| 20260904004539 | 82 | 95 | 0.0 | 0.0 | 0.00 | 0.00 | 0.00 | 84 | 1013.7 |
| 20260904004039 | 82 | 95 | 0.0 | 0.0 | 0.00 | 0.00 | 0.00 | 84 | 1013.6 |
| 20260904003538 | 83 | 95 | 0.0 | 0.0 | 0.00 | 0.00 | 0.00 | 84 | 1013.6 |
| 20260904003038 | 83 | 95 | 0.0 | 0.0 | 0.00 | 0.00 | 0.00 | 83 | 1013.5 |
| 20260904002539 | 84 | 95 | 0.0 | 0.0 | 0.00 | 0.00 | 0.00 | 81 | 1013.4 |
| 20260904002039 | 84 | 95 | 0.0 | 0.0 | 0.00 | 0.00 | 0.00 | 80 | 1013.3 |
| 20260904001554 | 85 | 95 | 0.0 | 0.0 | 0.00 | 0.00 | 0.00 | 78 | 1013.2 |
| 20260904001038 | 85 | 95 | 0.0 | 0.0 | 0.00 | 0.00 | 0.00 | 77 | 1013.1 |
| 20260904000541 | 85 | 95 | 0.0 | 0.0 | 0.00 | 0.00 | 0.00 | 75 | 1013.1 |
| 20260904000037 | 86 | 95 | 0.0 | 0.0 | 0.00 | 0.00 | 0.00 | 73 | 1013.0 |
| 20260903235540 | 86 | 95 | 0.0 | 0.0 | 0.00 | 0.00 | 0.00 | 73 | 1012.9 |
| 20260903235036 | 86 | 95 | 0.0 | 0.0 | 0.00 | 0.00 | 0.00 | 73 | 1012.9 |
| 20260903234536 | 87 | 95 | 0.0 | 0.0 | 0.00 | 0.00 | 0.00 | 73 | 1012.9 |
| 20260903234036 | 87 | 95 | 0.0 | 0.0 | 0.00 | 0.00 | 0.00 | 69 | 1012.9 |
| 20260903233535 | 88 | 95 | 0.0 | 0.0 | 0.00 | 0.00 | 0.00 | 67 | 1012.9 |
| 20260903233042 | 88 | 95 | 0.0 | 0.0 | 0.00 | 0.00 | 0.00 | 65 | 1012.9 |